Regional Weather Roundup
Issued by NWS Charleston, SC

Current Version | Previous Version | Text Only | Print | Product List | Glossary Off
Versions: 1 2 3 4 5 6 7 8 9 10 11 12 13 14 15 16 17 18 19 20 21 22 23 24 25 26 27 28 29 30 31 32 33 34 35 36 37 38 39 40 41 42 43 44 45 46 47 48 49 50

000
ASUS42 KCHS 262027
RWRCHS

REGIONAL WEATHER ROUNDUP
NATIONAL WEATHER SERVICE CHARLESTON SC
400 PM EDT SUN APR 26 2015

NOTE: "FAIR" INDICATES FEW OR NO CLOUDS BELOW 12,000 FEET WITH NO
SIGNIFICANT WEATHER AND/OR OBSTRUCTIONS TO VISIBILITY.

NOT ALL STATIONS ARE QUALITY CONTROLLED BY THE NATIONAL
WEATHER SERVICE. USE DATA WITH CAUTION...ESPECIALLY
DEWPOINT OBSERVATIONS.

SCZ027-030-031-034>040-042>050-262100-
...SOUTHEAST SOUTH CAROLINA...

CITY           SKY/WX    TMP DP  RH WIND       PRES   REMARKS
N CHARLESTON   MOSUNNY   88  57  34 W12G23    29.58F
WATERFRONT PRK NOT AVBL
MOUNT PLEASANT FAIR      88  57  35 MISG      29.57F
PINOPOLIS      NOT AVBL
MONCKS CORNER  FAIR      88  57  35 W8        29.56F
SUMMERVILLE    FAIR      86  59  39 W10G18    29.58F
BEAUFORT MCAS  MOSUNNY   87  58  37 W15G26    29.60F
BEAUFORT ARPT  FAIR      88  61  40 W21G26    29.60F
HILTON HEAD IS MOSUNNY   88  59  37 W10G18    29.63F
WALTERBORO     PTCLDY    86  54  32 W14G28    29.59F
ALLENDALE      FAIR      84  61  45 W8G15     29.59F

...SOUTHERN MIDLANDS AND PEE DEE...

CITY           SKY/WX    TMP DP  RH WIND       PRES   REMARKS
GEORGETOWN     NOT AVBL
KINGSTREE      NOT AVBL
ORANGEBURG     MOSUNNY   85  57  38 W14G22    29.58F
BARNWELL       FAIR      86  61  42 W13       29.60F
AIKEN          MOCLDY    81  54  39 SW16G23   29.62F
MANNING        FAIR      77  50  38 N9        29.58S HAZE
COLUMBIA       PTSUNNY   80  61  52 NE7G18    29.56F
SUMTER         SUNNY     69  58  68 NE12      29.60S
FLORENCE       CLOUDY    62  52  69 NE12      29.64F
MYRTLE BEACH   MOSUNNY   72  55  56 N17       29.63F
N MYRTLE BEACH PTSUNNY   67  56  67 N9        29.63F

$$

GAZ063-065-086>088-099>101-113>116-118-119-134>141-150-262100-
...SOUTHEAST GEORGIA...

CITY           SKY/WX    TMP DP  RH WIND       PRES   REMARKS
SAVANNAH ARPT  MOSUNNY   88  55  32 W18       29.62F
HUNTER AAF     SUNNY     88  58  36 W18G28    29.60F
FORT STEWART   SUNNY     88  55  32 W16       29.61F
STATESBORO       N/A     86  59  39 W13G21    29.62F
SYLVANIA       PTCLDY    85  61  43 W10G17    29.62F
CLAXTON        FAIR      86  57  37 W15G21    29.62F

...CSRA...CENTRAL AND FAR SOUTHEAST GEORGIA...

CITY           SKY/WX    TMP DP  RH WIND       PRES   REMARKS
THOMSON        PTSUNNY   81  65  59 W5        29.65F
AUGUSTA-BUSH   MOSUNNY   83  60  45 SW14G22   29.59F
AUGUSTA-DANIEL MOSUNNY   86  61  42 W8        29.61F
SWAINSBORO     NOT AVBL
VIDALIA        SUNNY     86  59  39 W13G18    29.64F
EASTMAN        FAIR      85  61  44 W12G20    29.69S
HAZLEHURST     FAIR      88  55  32 SW6       29.65S
ALMA           SUNNY     87  56  34 W12       29.66F
WAYCROSS       MOSUNNY   91  65  41 W16G23    29.66F HX  93
JESUP          FAIR      90  63  40 W10G22    29.65F HX  90
BAXLEY         FAIR      88  61  40 SW10G16   29.65F
BRUNSWICK      SUNNY     90  54  29 W15       29.65F
SAINT SIMONS   SUNNY     88  58  36 W13G23    29.65F

$$

SCZ027-028-034-036>038-045-046-048>050-GAZ119-141-262100-
...LAKE AND SUPPLEMENTAL COASTAL OBSERVATIONS...

STATION/POSITION TIME  TEMP    WIND        PRES    WAVE   SWELL
                       AIR SEA DIR/SP/G            HT/PER HT/PER/DIR
                 (UTC) (F)     (DEG/KT/KT) (MB)    (FT/S) (FT/S/D)
UPR LAKE MARION  NOT AVBL
WINYAH BAY       1945           70/ 13     1001.0S
LAKE MURRAY      1900   75      30/  4/  7 1001.7S
ACE BASIN NERRS  1945   85     250/  6     1003.0S
FORT PULASKI     1900   83 70  270/ 16/ 20 1004.1F
SAPELO ISLAND    2000   87     260/ 13     1003.0F

$$

ANZ835-935-AMZ111-154-330-350-352-354-370-450-454-472-262100-
...C-MAN AND BUOY OBSERVATIONS...

STATION/POSITION TIME  TEMP    WIND        PRES    WAVE   SWELL
                       AIR SEA DIR/SP/G            HT/PER HT/PER/DIR
                 (UTC) (F)     (DEG/KT/KT) (MB)    (FT/S) (FT/S/D)
BUOY 41004       1950   73 72  240/ 17/ 19 1001.7F   5/ 5   2/13
BUOY 41008       1950   73 72  190/  8/ 10 1003.9F   2/ 5   2/150/ 5
FOLLY BEACH CMAN 2000   75     220/ 13/ 15 1002.0F
CAPERS NEARSHORE 1908   73     230/ 16/ 19 1002.4F
FRIPP NEARSHORE  1900   74     210/ 10/ 12 1003.2F


STATION/POSITION TIME  TEMP    WIND        PRES    WAVE   SWELL
                       AIR SEA DIR/SP/G            HT/PER HT/PER/DIR
                 (UTC) (F)     (DEG/KT/KT) (MB)    (FT/S) (FT/S/D)
5E ST. MARYS GA  1921      72                N/A     1/13
FRYING PAN BUOY  1950   63 72   20/ 16/ 17 1003.8F   4/ 7   2/190/ 7
BUOY 41025       1950   56 76  360/ 23/ 29 1002.6R   7/ 7
CAPE LOOKOUT NC  2000   54     350/ 15/ 17 1003.8R
BUOY 41002       1950   72 71  270/ 14/ 16 1001.9F   7/ 8   5/250/ 8
BUOY 41010       1920   79 79  260/ 16/ 17 1006.8F
ST AUGUSTINE FL  2000   86 68  240/ 13/ 16 1005.6F


$$



USA.gov is the U.S. government's official web portal to all federal, state and local government web resources and services.